Weather History for KJZI - December, 2013

Change the Weather History Date:

Tuesday, December 24, 2013

  Actual Average (KCHS) Record (KCHS)
Temperature  
Mean Temperature 52 °F 49 °F  
Max Temperature 60 °F 60 °F 76 °F (1988)
Min Temperature 44 °F 39 °F 16 °F (1989)
Degree Days  
Heating Degree Days 13 16  
Month to date heating degree days 331  
Since 1 July heating degree days 623  
Cooling Degree Days 0 0  
Month to date cooling degree days 0  
Year to date cooling degree days 2297  
Growing Degree Days 2 (Base 50)    
Moisture  
Dew Point 43 °F    
Average Humidity 69    
Maximum Humidity 100    
Minimum Humidity 34    
Precipitation  
Precipitation 0.00 in 0.11 in 3.40 in (1978)
Month to date precipitation 2.36  
Year to date precipitation 50.28  
Sea Level Pressure  
Sea Level Pressure 30.23 in    
Wind  
Wind Speed 8 mph (NNW)    
Max Wind Speed 14 mph    
Max Gust Speed 21 mph    
Visibility 9 miles    
Events Rain    
T = Trace of Precipitation, MM = Missing Value Source: NWS Daily Summary

Daily Weather History Graph

Daily Weather History Graph

Search for Another Location

Airport or City:

Trip Planner

Search our weather history database for the weather conditions in past years. The results will help you decide how hot, cold, wet, or windy it might be!

Date:

Astronomy

Dec. 24, 2013 Rise Set
Actual Time 7:19 AM EST 5:19 PM EST
Civil Twilight 6:52 AM EST 5:47 PM EST
Nautical Twilight 6:21 AM EST 6:17 PM EST
Astronomical Twilight 5:51 AM EST 6:48 PM EST
Moon No Moon Rise 11:33 AM EST (12/24)
Length of Visible Light 10h 54m
Length of Day
10h 00m
Waning Gibbous, 59% of the Moon is Illuminated
Dec 24
Waning Gibbous
Dec 25
Last Quarter
Jan 1
New
Jan 7
First Quarter
Jan 15
Full

Hourly Weather History & Observations

Time (EST) Temp. Windchill Dew Point Humidity Pressure Visibility Wind Dir Wind Speed Gust Speed Precip Events Conditions
12:15 AM 59.0 °F - 57.2 °F 94% 30.10 in 10.0 mi NW 5.8 mph - 0.00 in   Mostly Cloudy
12:35 AM 59.0 °F - 57.2 °F 94% 30.10 in 10.0 mi NW 5.8 mph - 0.00 in   Mostly Cloudy
12:55 AM 59.0 °F - 57.2 °F 94% 30.10 in 10.0 mi NW 6.9 mph - 0.00 in   Overcast
1:15 AM 59.0 °F - 57.2 °F 94% 30.10 in 10.0 mi WNW 5.8 mph - 0.00 in   Overcast
1:35 AM 59.0 °F - 57.2 °F 94% 30.09 in 5.0 mi NW 5.8 mph - 0.00 in   Light Drizzle
1:55 AM 59.0 °F - 57.2 °F 94% 30.09 in 10.0 mi NW 5.8 mph - 0.00 in   Overcast
2:15 AM 59.0 °F - 57.2 °F 94% 30.09 in 10.0 mi WNW 6.9 mph - 0.00 in   Overcast
2:35 AM 59.0 °F - 57.2 °F 94% 30.09 in 4.0 mi WNW 6.9 mph - 0.00 in   Light Drizzle
2:55 AM 59.0 °F - 57.2 °F 94% 30.10 in 4.0 mi WNW 6.9 mph - 0.00 in Rain Light Rain
3:15 AM 57.2 °F - 57.2 °F 100% 30.09 in 1.5 mi NW 4.6 mph - 0.00 in Rain Light Rain
3:35 AM 57.2 °F - 57.2 °F 100% 30.10 in 3.0 mi Calm Calm - 0.00 in Rain Light Rain
3:55 AM 57.2 °F - 57.2 °F 100% 30.10 in 10.0 mi Calm Calm - 0.00 in   Overcast
4:15 AM 57.2 °F - 55.4 °F 94% 30.11 in 10.0 mi Calm Calm - 0.00 in   Overcast
4:35 AM 57.2 °F - 55.4 °F 94% 30.11 in 10.0 mi Calm Calm - 0.00 in   Overcast
4:55 AM 57.2 °F - 55.4 °F 94% 30.11 in 10.0 mi WNW 9.2 mph - 0.00 in   Overcast
5:15 AM 57.2 °F - 55.4 °F 94% 30.11 in 10.0 mi WNW 11.5 mph 16.1 mph 0.00 in   Overcast
5:35 AM 57.2 °F - 55.4 °F 94% 30.13 in 8.0 mi West 12.7 mph 19.6 mph 0.00 in   Overcast
5:55 AM 55.4 °F - 55.4 °F 100% 30.13 in 3.0 mi WNW 12.7 mph - 0.00 in   Overcast
6:15 AM 53.6 °F - 51.8 °F 94% 30.16 in 2.5 mi NNW 12.7 mph 20.7 mph 0.00 in   Overcast
6:35 AM 53.6 °F - 51.8 °F 94% 30.17 in 10.0 mi NNW 10.4 mph 16.1 mph 0.00 in   Overcast
6:55 AM 53.6 °F - 51.8 °F 94% 30.18 in 10.0 mi NW 8.1 mph - 0.00 in   Overcast
7:15 AM 53.6 °F - 51.8 °F 94% 30.20 in 10.0 mi Calm Calm - 0.00 in   Overcast
7:35 AM 53.6 °F - 51.8 °F 94% 30.21 in 3.0 mi NW 10.4 mph - 0.00 in   Overcast
7:55 AM 51.8 °F - 51.8 °F 100% 30.22 in 7.0 mi NW 12.7 mph 16.1 mph 0.00 in   Overcast
8:15 AM 51.8 °F - 48.2 °F 88% 30.23 in 10.0 mi NW 11.5 mph - 0.00 in   Mostly Cloudy
8:35 AM 53.6 °F - 48.2 °F 82% 30.24 in 10.0 mi NNW 8.1 mph - 0.00 in   Mostly Cloudy
8:55 AM 53.6 °F - 48.2 °F 82% 30.24 in 10.0 mi NNW 5.8 mph - 0.00 in   Overcast
9:15 AM 51.8 °F - 44.6 °F 76% 30.24 in 10.0 mi NNW 11.5 mph 16.1 mph 0.00 in   Mostly Cloudy
9:35 AM 53.6 °F - 44.6 °F 72% 30.25 in 10.0 mi NW 8.1 mph - 0.00 in   Partly Cloudy
9:55 AM 53.6 °F - 44.6 °F 72% 30.26 in 10.0 mi NNW 10.4 mph - 0.00 in   Clear
10:15 AM 55.4 °F - 44.6 °F 67% 30.26 in 10.0 mi NNW 9.2 mph - 0.00 in   Clear
10:35 AM 53.6 °F - 44.6 °F 72% 30.26 in 10.0 mi NNW 9.2 mph - 0.00 in   Clear
10:55 AM 55.4 °F - 44.6 °F 67% 30.26 in 10.0 mi NW 10.4 mph - 0.00 in   Partly Cloudy
11:15 AM 57.2 °F - 44.6 °F 63% 30.25 in 10.0 mi NW 12.7 mph - 0.00 in   Partly Cloudy
11:35 AM 57.2 °F - 44.6 °F 63% 30.24 in 10.0 mi NW 12.7 mph - 0.00 in   Clear
11:55 AM 59.0 °F - 44.6 °F 59% 30.24 in 10.0 mi NNW 11.5 mph 17.3 mph 0.00 in   Clear
12:15 PM 60.8 °F - 42.8 °F 52% 30.23 in 10.0 mi NW 13.8 mph 17.3 mph 0.00 in   Clear
12:35 PM 60.8 °F - 41.0 °F 48% 30.23 in 10.0 mi WNW 11.5 mph 16.1 mph 0.00 in   Clear
12:55 PM 60.8 °F - 39.2 °F 45% 30.23 in 10.0 mi NNW 11.5 mph 20.7 mph 0.00 in   Clear
1:15 PM 60.8 °F - 37.4 °F 42% 30.22 in 10.0 mi NNW 11.5 mph 18.4 mph 0.00 in   Clear
1:35 PM 60.8 °F - 37.4 °F 42% 30.22 in 10.0 mi WNW 12.7 mph 19.6 mph 0.00 in   Clear
1:55 PM 60.8 °F - 35.6 °F 39% 30.22 in 10.0 mi NW 12.7 mph - 0.00 in   Clear
2:15 PM 60.8 °F - 35.6 °F 39% 30.22 in 10.0 mi WNW 12.7 mph 20.7 mph 0.00 in   Clear
2:35 PM 60.8 °F - 33.8 °F 36% 30.22 in 10.0 mi WNW 13.8 mph 19.6 mph 0.00 in   Clear
2:55 PM 60.8 °F - 32.0 °F 34% 30.22 in 10.0 mi NW 13.8 mph 19.6 mph 0.00 in   Clear
3:15 PM 60.8 °F - 32.0 °F 34% 30.22 in 10.0 mi NW 11.5 mph 20.7 mph 0.00 in   Clear
3:35 PM 60.8 °F - 32.0 °F 34% 30.23 in 10.0 mi NW 12.7 mph - 0.00 in   Clear
3:55 PM 60.8 °F - 33.8 °F 36% 30.23 in 10.0 mi NW 8.1 mph - 0.00 in   Clear
4:15 PM 60.8 °F - 33.8 °F 36% 30.24 in 10.0 mi NW 8.1 mph - 0.00 in   Clear
4:35 PM 59.0 °F - 33.8 °F 39% 30.25 in 10.0 mi NW 5.8 mph - 0.00 in   Clear
4:55 PM 57.2 °F - 32.0 °F 38% 30.26 in 10.0 mi NNW 6.9 mph - 0.00 in   Clear
5:15 PM 55.4 °F - 32.0 °F 41% 30.27 in 10.0 mi NNW 4.6 mph - 0.00 in   Clear
5:35 PM 53.6 °F - 33.8 °F 47% 30.28 in 10.0 mi NW 4.6 mph - 0.00 in   Clear
5:55 PM 51.8 °F - 35.6 °F 54% 30.29 in 10.0 mi NNW 4.6 mph - 0.00 in   Clear
6:15 PM 51.8 °F - 35.6 °F 54% 30.29 in 10.0 mi North 4.6 mph - 0.00 in   Clear
6:35 PM 51.8 °F - 35.6 °F 54% 30.30 in 10.0 mi North 5.8 mph - 0.00 in   Clear
6:55 PM 48.2 °F - 35.6 °F 62% 30.31 in 10.0 mi North 3.5 mph - 0.00 in   Clear
7:15 PM 48.2 °F - 35.6 °F 62% 30.32 in 10.0 mi Calm Calm - 0.00 in   Clear
7:35 PM 48.2 °F - 35.6 °F 62% 30.33 in 10.0 mi North 4.6 mph - 0.00 in   Clear
7:55 PM 48.2 °F - 33.8 °F 58% 30.33 in 10.0 mi North 6.9 mph - 0.00 in   Clear
8:15 PM 48.2 °F - 33.8 °F 58% 30.34 in 10.0 mi North 8.1 mph - 0.00 in   Clear
8:35 PM 48.2 °F - 33.8 °F 58% 30.35 in 10.0 mi NNE 8.1 mph - 0.00 in   Clear
8:55 PM 48.2 °F - 33.8 °F 58% 30.35 in 10.0 mi NNE 9.2 mph - 0.00 in   Clear
9:15 PM 48.2 °F - 33.8 °F 58% 30.35 in 10.0 mi NNE 11.5 mph 17.3 mph 0.00 in   Clear
9:35 PM 46.4 °F 41.1 °F 32.0 °F 57% 30.36 in 10.0 mi NNE 11.5 mph 17.3 mph 0.00 in   Clear
9:55 PM 46.4 °F 40.7 °F 32.0 °F 57% 30.36 in 10.0 mi NNE 12.7 mph 18.4 mph 0.00 in   Clear
10:15 PM 46.4 °F 41.9 °F 33.8 °F 62% 30.37 in 10.0 mi NNE 9.2 mph - 0.00 in   Clear
10:35 PM 46.4 °F 41.5 °F 33.8 °F 62% 30.37 in 10.0 mi NNE 10.4 mph - 0.00 in   Clear
10:55 PM 46.4 °F 40.4 °F 32.0 °F 57% 30.36 in 10.0 mi North 13.8 mph - 0.00 in   Clear
11:15 PM 46.4 °F 40.4 °F 32.0 °F 57% 30.36 in 10.0 mi NNE 13.8 mph 20.7 mph 0.00 in   Clear
11:35 PM 44.6 °F 39.2 °F 32.0 °F 61% 30.36 in 10.0 mi NNE 10.4 mph 18.4 mph 0.00 in   Clear
11:55 PM 44.6 °F 38.8 °F 32.0 °F 61% 30.37 in 10.0 mi NNE 11.5 mph 18.4 mph 0.00 in   Clear